Location: Capon Springs and Farms
(39.1310°N, 78.4814°W)
Time: 15:21:06
(UTC-04:00)

Envisat - Visible Passes

Search period start: 23 March 2019 00:00
Search period end: 02 April 2019 00:00
Orbit: 764 x 766 km, 98.2° (Epoch: 22 March)

Date Brightness Start Highest point End Pass type
(mag) Time Alt. Az. Time Alt. Az. Time Alt. Az.
23 Mar 5.0 20:41:48 10° SSW 20:46:11 29° W 20:50:35 10° NW visible
24 Mar 3.4 20:04:16 10° S 20:09:18 67° WSW 20:14:23 10° NNW visible
25 Mar 5.8 21:08:47 10° SW 21:11:56 16° W 21:15:06 10° NW visible
26 Mar 4.6 20:30:14 10° SSW 20:34:54 37° W 20:39:37 10° NNW visible
27 Mar 3.1 19:53:00 10° SSE 19:58:05 86° WSW 20:03:11 10° NNW visible
28 Mar 5.6 20:56:50 10° SW 21:00:37 21° W 21:04:25 10° NW visible
29 Mar 4.1 20:18:46 10° S 20:23:39 47° W 20:28:33 10° NNW visible
30 Mar 6.1 21:24:51 10° WSW 21:26:25 11° W 21:27:59 10° WNW visible
31 Mar 5.2 20:45:04 10° SSW 20:49:19 27° W 20:53:34 10° NW visible
01 Apr 3.6 20:07:24 10° S 20:12:24 61° W 20:17:26 10° NNW visible
